Weather Roundup
Issued by NWS Springfield, MO

Home | Current Version | Previous Version | Text Only | Print | Product List | Glossary On
Versions: 1 2 3 4 5 6 7 8 9 10 11 12 13 14 15 16 17 18 19 20 21 22 23 24 25 26 27 28 29 30 31 32 33 34 35 36 37 38 39 40 41 42 43 44 45 46 47 48 49 50
000
NZUS99 KSGF 281507
HRRSGF

HOURLY WEATHER
NATIONAL WEATHER SERVICE SPRINGFIELD MO
1000 AM CDT THU AUG 28 2014

......SGF CWA......

CITY           SKY/WX    TMP DP  RH WIND       PRES   REMARKS
SPRINGFIELD    SUNNY     83  69  62 S10       30.04S
JOPLIN         SUNNY     85  66  53 S12       30.02S
WEST PLAINS    SUNNY     82  67  60 S7        30.08S
ROLLA          SUNNY     83  69  62 S8        30.04F
OSAGE BEACH    SUNNY     82  70  65 S7        30.03S
BRANSON        SUNNY     86  68  54 S7        30.07S

......SURROUNDING SGF CWA......

CITY           SKY/WX    TMP DP  RH WIND       PRES   REMARKS
CHANUTE        SUNNY     83  67  58 S13       30.00S
PARSONS        SUNNY     84  68  58 SW10      30.01S
COFFEYVILLE    SUNNY     83  68  60 S13       29.99S
EMPORIA        MOSUNNY   83  68  60 S12       29.98S
GROVE OK       PTSUNNY   82  70  65 S3        30.02S
ROGERS AR      SUNNY     82  65  56 S9        30.06S
SILOAM SPRINGS SUNNY     81  64  57 S10       30.05S
HARRISON AR    SUNNY     80  70  71 SE7       30.07S
NEAR YELLVILLE SUNNY     81  66  61 S3        30.05S

......KANSAS AND MISSOURI......

CITY           SKY/WX    TMP DP  RH WIND       PRES   REMARKS
KANSAS CTY INT CLOUDY    79  71  76 SW7       29.99R
DOWNTOWN KC    PTSUNNY   82  71  69 SW7       29.97S
COLUMBIA       SUNNY     83  71  67 S10       30.03S
SEDALIA        MOSUNNY   85  71  63 S10       30.01S HX  90
ST JOSEPH      PTSUNNY   77  72  84 E3        29.98S
ST LOUIS       MOSUNNY   81  71  71 SE6       30.05F
SPIRIT OF STL  MOSUNNY   80  72  76 CALM      30.03F
KIRKSVILLE     PTSUNNY   76  70  82 SE8       30.03S
WICHITA        CLOUDY    78  65  63 S9        29.97S
TOPEKA         MOSUNNY   85  70  60 SW5       29.97S
OLATHE         PTSUNNY   78  71  79 SW8       29.99S

......TENNESSEE......

CITY           SKY/WX    TMP DP  RH WIND       PRES   REMARKS
MEMPHIS        MOSUNNY   88  63  43 SW6       30.04S
NASHVILLE      SUNNY     85  71  63 VRB5      30.05F HX  90

......ARKANSAS.......

CITY           SKY/WX    TMP DP  RH WIND       PRES   REMARKS
FAYETTEVILLE   SUNNY     81  67  62 S9        30.05S
FT SMITH       SUNNY     83  70  64 VRB6      30.00F
LITTLE ROCK    MOSUNNY   84  67  56 VRB5      30.03S

......OKLAHOMA.......

CITY           SKY/WX    TMP DP  RH WIND       PRES   REMARKS
TULSA          MOSUNNY   84  66  54 S10       29.97F
PONCA CITY     MOSUNNY   82  64  54 S12       29.97S
MCALESTER      MOSUNNY   83  68  60 S6        30.00F
OKLAHOMA CITY  MOSUNNY   83  62  49 S13       29.98F

......IOWA............

CITY           SKY/WX    TMP DP  RH WIND       PRES   REMARKS
DES MOINES     RAIN      67  65  93 SE8       30.02F FOG
QUAD CITIES    PTSUNNY   71  61  70 E13       30.08S

......ILLINOIS........

CITY           SKY/WX    TMP DP  RH WIND       PRES   REMARKS
QUINCY         PTSUNNY   75  70  84 SE12      30.04S
CHICAGO        MOSUNNY   72  53  51 E12       30.13S



USA.gov is the U.S. government's official web portal to all federal, state and local government web resources and services.